Simultaneous Nadir Overpasses (SNOs) Predictions

Prediction of SNOs between GOES-16 and TERRA Satellite Orbit:

Table of predicted SNOs for the next 14.0 days since TLE Epoch: 9/10/2022
Index Date Time (GOES-16) GOES-16 Lat,Lon TERRA Lat,Lon Distance(km) Time Diff (sec)
1 09/10/2022 15:28:11 -0.04, -75.20 0.62, -78.36 359.15 80
2 09/12/2022 15:15:55 -0.04, -75.21 0.02, -75.40 21.72 80
3 09/14/2022 15:06:20 -0.04, -75.23 -0.65, -72.45 316.62 80
4 09/15/2022 03:27:43 0.04, -75.22 -0.46, -77.64 274.45 80
5 09/17/2022 03:12:47 0.04, -75.24 0.16, -74.68 64.29 80
6 09/19/2022 03:00:31 0.03, -75.27 0.79, -71.72 403.48 80
7 09/19/2022 15:21:45 -0.03, -75.29 0.33, -76.87 181.20 80
8 09/21/2022 15:12:09 -0.02, -75.32 -0.30, -73.92 158.82 80
9 09/22/2022 03:33:32 0.02, -75.32 -0.79, -79.11 431.50 80
10 09/23/2022 14:57:13 -0.02, -75.35 -0.95, -70.96 499.48 80
11 09/24/2022 03:21:16 0.02, -75.36 -0.14, -76.16 90.65 80
